Date String (YYYY-MM-DD hh:mm:ss) UTC,Instrument flags,absolute air pressure of the measurement (hPa),sample flow rate (lpm),inlet stack bypass flow (lpm),air temperature of the measurement (°C),ambient temperature measured by the external sensor (°C),aerosol sample conditioner tube jacket temperature (°C),OPC LED temperature (°C),internal box temperature (°C),relative humidity of the measurement (%),span deviation,mass concentration of particles derived from Lorenz-Mie calculation of OPC scattering (μg/m³),mass concentration of particles derived from Lorenz-Mie calculation of OPC scattering (μg/m³),mass concentration of particles derived from Lorenz-Mie calculation of OPC scattering (μg/m³)
DateTimeUTC,F1_M11,P_M11,Q1_M11,Q2_M11,T1_M11,T2_M11,T3_M11,T4_M11,T5_M11,U1_M11,ZSPAN_M11,X0_M11,X2_M11,X1_M11
2024-05-25 12:00:00,SystemResetWarning,0820.6,5.01,000.00,028.6,027.7,000.0,036.9,030.2,012.8,0000.0,0010.10,0003.88,0002.39
2024-05-25 12:01:00,SystemResetWarning,0820.7,5.00,000.00,028.6,027.7,000.0,036.9,030.2,012.8,0000.0,0010.10,0003.87,0002.39
2024-05-25 12:02:00,SystemResetWarning,0820.8,5.00,000.00,028.6,027.7,000.0,036.9,030.2,012.8,0000.0,0010.63,0003.85,0002.38
2024-05-25 12:03:00,SystemResetWarning,0820.7,5.00,000.00,028.6,027.7,000.0,036.9,030.2,012.8,0000.0,0010.86,0003.85,0002.38
2024-05-25 12:04:00,SystemResetWarning,0820.5,4.99,000.00,028.6,027.7,000.0,036.9,030.2,012.8,0000.0,0011.43,0003.81,0002.38
2024-05-25 12:05:00,SystemResetWarning,0820.5,5.00,000.00,028.5,027.7,000.0,036.9,030.2,012.8,0000.0,0011.66,0003.83,0002.36
2024-05-25 12:06:00,SystemResetWarning,0820.6,5.00,000.00,028.5,027.7,000.0,036.9,030.2,012.8,0000.0,0012.97,0003.87,0002.37
2024-05-25 12:07:00,SystemResetWarning,0820.6,5.02,000.00,028.5,027.7,000.0,036.9,030.2,012.8,0000.0,0013.42,0003.85,0002.38
2024-05-25 12:08:00,SystemResetWarning,0820.5,4.99,000.00,028.5,027.7,000.0,036.9,030.2,012.8,0000.0,0012.43,0003.87,0002.39
2024-05-25 12:09:00,SystemResetWarning,0820.5,4.99,000.00,028.5,027.6,000.0,036.9,030.2,012.7,0000.0,0012.54,0003.86,0002.38
2024-05-25 12:10:00,SystemResetWarning,0820.6,4.99,000.00,028.5,027.6,000.0,036.9,030.2,012.7,0000.0,0013.16,0003.87,0002.39
2024-05-25 12:11:00,SystemResetWarning,0820.6,5.01,000.00,028.5,027.6,000.0,036.9,030.2,012.7,0000.0,0013.24,0003.90,0002.38
2024-05-25 12:12:00,SystemResetWarning,0820.6,5.01,000.00,028.5,027.6,000.0,036.9,030.2,012.8,0000.0,0013.58,0003.89,0002.36
2024-05-25 12:13:00,SystemResetWarning,0820.6,5.01,000.00,028.5,027.6,000.0,036.9,030.2,012.8,0000.0,0013.43,0003.96,0002.36
2024-05-25 12:14:00,SystemResetWarning,0820.5,5.00,000.00,028.5,027.6,000.0,036.9,030.2,012.8,0000.0,0013.15,0003.99,0002.35
2024-05-25 12:15:00,SystemResetWarning,0820.6,5.00,000.00,028.5,027.6,000.0,036.9,030.2,012.8,0000.0,0012.57,0004.00,0002.34
2024-05-25 12:16:00,SystemResetWarning,0820.6,4.98,000.00,028.5,027.6,000.0,036.9,030.2,012.8,0000.0,0012.24,0003.94,0002.31
2024-05-25 12:17:00,SystemResetWarning,0820.6,5.00,000.00,028.5,027.6,000.0,036.9,030.2,012.8,0000.0,0011.07,0003.88,0002.29
2024-05-25 12:18:00,SystemResetWarning,0820.5,5.01,000.00,028.5,027.6,000.0,036.9,030.1,012.8,0000.0,0010.81,0003.86,0002.27
2024-05-25 12:19:00,SystemResetWarning,0820.6,5.01,000.00,028.5,027.6,000.0,036.8,030.1,012.9,0000.0,0010.49,0003.77,0002.25
2024-05-25 12:20:00,SystemResetWarning,0820.6,4.99,000.00,028.5,027.6,000.0,036.8,030.2,012.8,0000.0,0010.45,0003.79,0002.26
2024-05-25 12:21:00,SystemResetWarning,0820.5,4.99,000.00,028.5,027.6,000.0,036.8,030.2,012.8,0000.0,0009.55,0003.79,0002.26
2024-05-25 12:22:00,SystemResetWarning,0820.6,4.99,000.00,028.5,027.6,000.0,036.8,030.1,012.9,0000.0,0009.42,0003.74,0002.26
2024-05-25 12:23:00,SystemResetWarning,0820.6,5.02,000.00,028.5,027.6,000.0,036.8,030.1,012.9,0000.0,0009.05,0003.72,0002.26
2024-05-25 12:24:00,SystemResetWarning,0820.6,5.00,000.00,028.4,027.6,000.0,036.8,030.1,012.9,0000.0,0008.90,0003.70,0002.27
2024-05-25 12:25:00,SystemResetWarning,0820.6,5.00,000.00,028.4,027.6,000.0,036.8,030.1,012.8,0000.0,0009.48,0003.65,0002.27
2024-05-25 12:26:00,SystemResetWarning,0820.6,4.99,000.00,028.4,027.6,000.0,036.8,030.1,012.9,0000.0,0010.37,0003.63,0002.26
2024-05-25 12:27:00,SystemResetWarning,0820.6,4.99,000.00,028.4,027.6,000.0,036.8,030.1,012.9,0000.0,0010.35,0003.60,0002.28
2024-05-25 12:28:00,SystemResetWarning,0820.7,5.00,000.00,028.4,027.6,000.0,036.8,030.1,012.9,0000.0,0010.92,0003.64,0002.28
2024-05-25 12:29:00,SystemResetWarning,0820.6,5.00,000.00,028.4,027.6,000.0,036.8,030.1,013.2,0000.0,0010.39,0003.64,0002.29
2024-05-25 12:30:00,SystemResetWarning,0820.6,5.01,000.00,028.4,027.6,000.0,036.8,030.1,013.2,0000.0,0010.45,0003.68,0002.30
2024-05-25 12:31:00,SystemResetWarning,0820.6,5.00,000.00,028.4,027.6,000.0,036.8,030.1,013.0,0000.0,0010.45,0003.65,0002.27
2024-05-25 12:32:00,SystemResetWarning,0820.6,5.00,000.00,028.4,027.6,000.0,036.8,030.1,013.0,0000.0,0010.46,0003.64,0002.27
2024-05-25 12:33:00,SystemResetWarning,0820.6,5.00,000.00,028.4,027.6,000.0,036.8,030.1,013.0,0000.0,0010.67,0003.66,0002.27
2024-05-25 12:34:00,SystemResetWarning,0820.6,5.00,000.00,028.4,027.6,000.0,036.8,030.1,013.0,0000.0,0011.07,0003.70,0002.27
2024-05-25 12:35:00,SystemResetWarning,0820.6,5.00,000.00,028.4,027.6,000.0,036.8,030.1,013.1,0000.0,0011.41,0003.65,0002.25
2024-05-25 12:36:00,SystemResetWarning,0820.6,4.99,000.00,028.4,027.6,000.0,036.8,030.1,013.2,0000.0,0011.27,0003.65,0002.24
2024-05-25 12:37:00,SystemResetWarning,0820.7,5.00,000.00,028.4,027.6,000.0,036.8,030.1,013.3,0000.0,0010.38,0003.62,0002.25
2024-05-25 12:38:00,SystemResetWarning,0820.6,5.01,000.00,028.4,027.6,000.0,036.8,030.1,013.5,0000.0,0010.56,0003.65,0002.26
2024-05-25 12:39:00,SystemResetWarning,0820.6,5.01,000.00,028.4,027.6,000.0,036.8,030.1,013.9,0000.0,0010.32,0003.63,0002.27
2024-05-25 12:40:00,SystemResetWarning,0820.6,4.99,000.00,028.4,027.6,000.0,036.8,030.1,013.5,0000.0,0010.42,0003.63,0002.26
2024-05-25 12:41:00,SystemResetWarning,0820.6,4.99,000.00,028.4,027.6,000.0,036.8,030.1,013.5,0000.0,0010.39,0003.61,0002.25
2024-05-25 12:42:00,SystemResetWarning,0820.6,4.99,000.00,028.4,027.6,000.0,036.8,030.1,013.1,0000.0,0010.49,0003.65,0002.26
2024-05-25 12:43:00,SystemResetWarning,0820.7,5.00,000.00,028.4,027.6,000.0,036.8,030.1,013.0,0000.0,0010.65,0003.66,0002.25
2024-05-25 12:44:00,SystemResetWarning,0820.7,5.01,000.00,028.4,027.6,000.0,036.8,030.1,013.5,0000.0,0011.23,0003.70,0002.26
2024-05-25 12:45:00,SystemResetWarning,0820.7,5.01,000.00,028.4,027.6,000.0,036.8,030.1,014.5,0000.0,0011.17,0003.70,0002.26
2024-05-25 12:46:00,SystemResetWarning,0820.7,5.01,000.00,028.4,027.6,000.0,036.8,030.1,014.2,0000.0,0011.26,0003.73,0002.29
2024-05-25 12:47:00,SystemResetWarning,0820.7,5.01,000.00,028.4,027.6,000.0,036.8,030.1,013.8,0000.0,0010.88,0003.74,0002.29
2024-05-25 12:48:00,SystemResetWarning,0820.7,5.00,000.00,028.4,027.6,000.0,036.8,030.1,014.0,0000.0,0012.15,0003.78,0002.31
2024-05-25 12:49:00,SystemResetWarning,0820.7,5.00,000.00,028.4,027.6,000.0,036.8,030.1,013.9,0000.0,0013.25,0003.80,0002.31
2024-05-25 12:50:00,SystemResetWarning,0820.7,4.99,000.00,028.4,027.6,000.0,036.8,030.1,014.1,0000.0,0013.84,0003.83,0002.32
2024-05-25 12:51:00,SystemResetWarning,0820.7,5.00,000.00,028.4,027.6,000.0,036.7,030.1,013.9,0000.0,0013.60,0003.90,0002.34
2024-05-25 12:52:00,SystemResetWarning,0820.7,4.99,000.00,028.4,027.6,000.0,036.7,030.1,013.8,0000.0,0014.30,0003.99,0002.39
2024-05-25 12:53:00,SystemResetWarning,0820.7,5.00,000.00,028.4,027.6,000.0,036.7,030.1,013.5,0000.0,0015.83,0004.04,0002.42
2024-05-25 12:54:00,SystemResetWarning,0820.7,5.01,000.00,028.4,027.6,000.0,036.7,030.1,013.9,0000.0,0016.16,0004.05,0002.44
2024-05-25 12:55:00,SystemResetWarning,0820.7,5.00,000.00,028.4,027.6,000.0,036.8,030.1,014.0,0000.0,0016.32,0004.15,0002.48
2024-05-25 12:56:00,SystemResetWarning,0820.7,5.01,000.00,028.4,027.6,000.0,036.7,030.1,013.6,0000.0,0016.90,0004.24,0002.51
2024-05-25 12:57:00,SystemResetWarning,0820.7,4.99,000.00,028.4,027.6,000.0,036.7,030.1,013.5,0000.0,0017.27,0004.28,0002.51
2024-05-25 12:58:00,SystemResetWarning,0820.7,4.99,000.00,028.4,027.6,000.0,036.8,030.1,013.1,0000.0,0017.65,0004.34,0002.52
2024-05-25 12:59:00,SystemResetWarning,0820.7,4.99,000.00,028.4,027.6,000.0,036.8,030.1,013.9,0000.0,0016.87,0004.38,0002.51
